Regional Weather Roundup
Issued by NWS

Home | Current Version | Previous Version | Text Only | Print | Product List | Glossary Off
Versions: 1 2 3 4 5 6 7 8 9 10 11 12 13 14 15 16 17 18 19 20 21 22 23 24 25 26 27 28

000
ASUS45 KSLC 211410
RWRUT

UTAH REGIONAL WEATHER ROUNDUP
NATIONAL WEATHER SERVICE SALT LAKE CITY UT
800 AM MDT FRI JUL 21 2017

UTZ001>011-023>025-211500-

NORTHERN UTAH

CITY           SKY/WX    TMP DP  RH WIND       PRES   REMARKS
BRIGHAM CITY   MOSUNNY   73  49  42 W3        30.07S
HILL AFB       MOSUNNY   76  53  45 E9        30.10S
LOGAN          PTSUNNY   67  57  70 SW5       30.10S
OGDEN          MOSUNNY   76  55  48 S6        30.07R
SALT LAKE CITY PTSUNNY   80  55  42 SE6       30.06R
TOOELE VALLEY  MOSUNNY   73  55  53 E6        30.09R
WENDOVER       SUNNY     76  44  32 NE3       30.08R
HEBER CITY     PTSUNNY   68  52  56 CALM      30.17S
WEST JORDAN    MOSUNNY   77  61  57 S6        30.10R

$$

UTZ011>015-024>027-211500-

CENTRAL/NORTHEAST UTAH

CITY           SKY/WX    TMP DP  RH WIND       PRES   REMARKS
PROVO AIRPORT  PTSUNNY   73  55  53 S8        30.10S
MOAB/CANYONLAN MOSUNNY   73  64  73 CALM      30.11R
DELTA          MOSUNNY   73  48  40 S3        30.12R
PRICE          PTSUNNY   71  52  50 CALM      30.21R
ROOSEVELT      SUNNY     70  54  56 CALM      30.19S
VERNAL         SUNNY     73  54  51 NW6       30.18R

$$

UTZ013>016-019>022-027-211500-

SOUTHERN UTAH

CITY           SKY/WX    TMP DP  RH WIND       PRES   REMARKS
BRYCE CANYON   PTSUNNY   57  53  86 W3        30.36R
CEDAR CITY     SUNNY     72  46  39 SE5       30.19R
MILFORD        SUNNY     71  52  50 S7        30.13R
ST GEORGE      PTSUNNY   81  57  43 E5        30.01R
HANKSVILLE     PTSUNNY   73  55  53 CALM      30.14R
BLANDING       CLOUDY    65  60  81 CALM      30.31S

$$

REGIONAL REPORTS     COLORADO/ARIZONA

CITY           SKY/WX    TMP DP  RH WIND       PRES   REMARKS
CRAIG, CO      SUNNY     69  50  50 E7        30.24R
GRAND JUNCTION CLOUDY    73  56  54 S8        30.13F
RIFLE, CO      SUNNY     68  55  63 N3        30.22S
MONTROSE, CO   CLOUDY    68  51  54 S8        30.25R
CORTEZ, CO     CLOUDY    61  58  90 CALM      30.25R
COLORADO CITY    N/A     68  57  68 CALM      30.18R
PAGE, AZ       MOSUNNY   78  60  53 SE5       30.10R
GRAND CANYON   CLOUDY    64  56  75 CALM      30.30R
KINGMAN, AZ    SUNNY     78  59  51 SE9       30.07R
FLAGSTAFF, AZ  CLOUDY    59  56  89 SW3       30.33S

$$

REGIONAL REPORTS    NEVADA/IDAHO/WYOMING

CITY           SKY/WX    TMP DP  RH WIND       PRES   REMARKS
LAS VEGAS, NV  MOSUNNY   86  45  23 SW6       29.92R
ELY, NY        MOSUNNY   58  43  57 S6        30.24R
ELKO, NV       MOSUNNY   57  29  34 CALM      30.18R
POCATELLO, ID  SUNNY     68  39  34 S5        30.13R
BURLEY, ID     SUNNY     61  45  55 S3        30.11R
FORT BRIDGER,    N/A     63  56  78 N7        30.30R
EVANSTON, WY   CLOUDY    65  53  65 N3        30.28S
ROCK SPRINGS,  CLOUDY    61  53  75 N8        30.26R
KEMMERER, WY     N/A     63  50  63 NW7       30.30R

$$




USA.gov is the U.S. government's official web portal to all federal, state and local government web resources and services.